Location: Juiz de Fora
(21.7500°S, 43.3330°W)
Time: 21:48:07
(UTC-03:00)

BlueWalker 3 - Visible Passes

Search period start: 19 June 2024 00:00
Search period end: 29 June 2024 00:00
Orbit: 480 x 494 km, 53.2° (Epoch: 19 June)

Date Brightness Start Highest point End Pass type
(mag) Time Alt. Az. Time Alt. Az. Time Alt. Az.
19 Jun 5.5 18:03:13 10° W 18:04:39 12° WNW 18:06:03 10° NW visible
20 Jun 5.2 05:59:23 10° NNE 06:01:39 15° ENE 06:03:58 10° E visible
21 Jun 5.3 05:33:59 10° NNE 05:36:00 14° ENE 05:38:00 10° E visible
22 Jun 5.3 05:08:40 10° NNE 05:10:19 12° ENE 05:11:58 10° E visible
23 Jun 5.3 04:43:27 10° NE 04:44:37 11° ENE 04:45:47 10° ENE visible
24 Jun 2.2 05:53:05 10° WNW 05:56:42 43° SW 06:00:21 10° SSE visible
25 Jun 2.1 05:27:36 12° NW 05:30:58 48° SW 05:34:40 10° SSE visible
26 Jun 2.0 05:05:34 51° SSW 05:05:34 51° SSW 05:08:58 10° SSE visible
27 Jun 4.3 04:42:37 14° SSE 04:42:37 14° SSE 04:43:15 10° SSE visible
